Flag for Belgium Weather past 2 weeks in Ghent, Belgium

Now
47 °F

Cool.


Feels Like: 46 °F
Forecast: 38 / 46 °F
Wind: 3 mph from Southwest

Location: Munte

Current Time: Mar 1, 2015 at 8:56:12 PM

Latest Report: Mar 1, 2015 at 8:00 PM


Visibility: 9 mi

Pressure: 29.59 "Hg

Humidity: 76%

Dew point: 40 °F

Location of GhentLocation

Historic Weather in Ghent — Graph

°F

Ghent temperature yesterday

Maximum temperature yesterday: 48 °F (at 3:00 PM)
Minimum temperature yesterday: 32 °F (at 5:00 AM)
Average temperature yesterday: 41 °F

Past Weeks' High & Low Weather Summary

 TemperatureHumidityPressure
High51 °F (Mar 1, 1:00 PM)100% (Feb 16, 5:00 AM)30.78 "Hg (Feb 16, 5:00 AM)
Low27 °F (Feb 18, 8:00 AM)56% (Feb 23, 1:00 PM)29.35 "Hg (Feb 23, 5:00 AM)
Average40 °F87%29.96 "Hg
* Reported Feb 14 7:00 PM — Mar 1 7:00 PM, Ghent, Weather by CustomWeather, © 2015

Note: Actual official high and low records may vary slightly from our data, if they occured in-between our weather recording intervals... More about our weather records

Advertising

Ghent weather history for previous 24 hours

 ConditionsComfort  
Time TempWeatherWind HumidityBarometerVisibility
7:00 PM
Sun, Mar 1
47 °FCool.3 mph72%29.62 "Hg9 mi
6:00 PM48 °FCool.6 mph65%29.63 "Hg14 mi
5:00 PM50 °FCool.8 mph59%29.64 "Hg22 mi
4:00 PM50 °FCool.10 mph60%29.64 "Hg19 mi
2:00 PM51 °FCool.10 mph58%29.66 "Hg22 mi
1:00 PM51 °FCool.10 mph64%29.65 "Hg12 mi
12:00 PM51 °FCool.9 mph65%29.66 "Hg17 mi
11:00 AM50 °FCool.9 mph69%29.65 "Hg7 mi
10:00 AM49 °FCool.9 mph74%29.65 "Hg6 mi
9:00 AM47 °FCool.8 mph79%29.64 "Hg6 mi
8:00 AM47 °FCool.8 mph82%29.61 "Hg6 mi
7:00 AM48 °FCool.8 mph83%29.57 "Hg7 mi
6:00 AM48 °FCool.7 mph94%29.57 "Hg28 mi
5:00 AM47 °FDrizzle. Overcast.6 mph97%29.57 "Hg2 mi
3:00 AM46 °FCool.10 mph92%29.56 "Hg19 mi
2:00 AM44 °FDrizzle. Overcast.10 mph93%29.59 "Hg5 mi
1:00 AM44 °FRain. Overcast.9 mph89%29.64 "Hg6 mi
12:00 AM46 °FCool.12 mph80%29.68 "Hg22 mi
11:00 PM
Sat, Feb 28
45 °FCool.10 mph78%29.71 "Hg25 mi
10:00 PM46 °FCool.10 mph70%29.74 "Hg25 mi
9:00 PM46 °FCool.10 mph71%29.77 "Hg28 mi
8:00 PM46 °FCool.10 mph72%29.81 "Hg25 mi
Weather by CustomWeather, © 2015

See weather overviewHow to use our weather pages